timestamp,surface_pressure_avg,surface_temp_avg,battery_voltage,lat,long
2024-03-17 00:09:01+00:00,256.1347,0.9,11.61,47.84626,-54.09684
2024-03-17 00:19:00+00:00,258.1463,0.9,11.61,47.84626,-54.09684
2024-03-17 00:29:00+00:00,259.2831,0.9,11.61,47.84626,-54.09684
2024-03-17 00:39:00+00:00,259.9449,0.9,11.61,47.84626,-54.09684
2024-03-17 00:49:00+00:00,258.4549,0.9,11.61,47.84626,-54.09684
2024-03-17 00:59:00+00:00,260.4831,0.9,11.61,47.84626,-54.09684
2024-03-17 01:09:00+00:00,263.9264,0.9,11.61,47.84626,-54.09684
2024-03-17 01:19:00+00:00,264.7447,0.9,11.61,47.84626,-54.09684
2024-03-17 01:29:00+00:00,267.0931,0.9,11.61,47.84626,-54.09684
2024-03-17 01:39:00+00:00,272.7047,0.9,11.61,47.84626,-54.09684
2024-03-17 01:49:00+00:00,280.7064,0.9,11.61,47.84626,-54.09684
2024-03-17 01:59:00+00:00,288.0565,0.89,11.61,47.84626,-54.09684
2024-03-17 02:09:00+00:00,294.0564,0.89,11.61,47.84626,-54.09684
2024-03-17 02:19:00+00:00,300.8014,0.88,11.61,47.84626,-54.09684
2024-03-17 02:29:00+00:00,305.9997,0.88,11.61,47.84626,-54.09684
2024-03-17 02:39:00+00:00,311.6264,0.89,11.61,47.84626,-54.09684
2024-03-17 02:49:00+00:00,314.5797,0.88,11.61,47.84626,-54.09684
2024-03-17 02:59:00+00:00,318.538,0.8,11.61,47.84626,-54.09684
2024-03-17 03:09:00+00:00,319.6414,0.81,11.61,47.84626,-54.09684
2024-03-17 03:19:00+00:00,320.088,0.83,11.61,47.84626,-54.09684
2024-03-17 03:29:00+00:00,321.9713,0.86,11.61,47.84626,-54.09684
2024-03-17 03:39:00+00:00,325.5681,0.86,11.61,47.84626,-54.09684
2024-03-17 03:49:00+00:00,328.1379,0.85,11.61,47.84626,-54.09684
2024-03-17 03:59:00+00:00,329.1663,0.86,11.61,47.84626,-54.09684
2024-03-17 04:09:00+00:00,332.3130000000001,0.84,11.61,47.84626,-54.09684
2024-03-17 04:19:00+00:00,334.338,0.82,11.61,47.84626,-54.09684
2024-03-17 04:29:00+00:00,333.2614,0.83,11.61,47.84626,-54.09684
2024-03-17 04:39:00+00:00,333.2229,0.8,11.61,47.84626,-54.09684
2024-03-17 04:49:00+00:00,336.783,0.8,11.61,47.84626,-54.09684
2024-03-17 04:59:00+00:00,336.9012,0.82,11.61,47.84626,-54.09684
2024-03-17 05:09:00+00:00,333.723,0.8,11.61,47.84626,-54.09684
2024-03-17 05:19:00+00:00,334.4746,0.8,11.53,47.84626,-54.09684
2024-03-17 05:29:00+00:00,342.3779,0.8,11.53,47.84626,-54.09684
2024-03-17 05:39:00+00:00,343.0413,0.8,11.53,47.84626,-54.09684
2024-03-17 05:49:00+00:00,341.0231,0.8,11.53,47.84626,-54.09684
2024-03-17 05:59:00+00:00,342.9796,0.8,11.53,47.84626,-54.09684
2024-03-17 06:09:00+00:00,346.0631,0.8,11.53,47.84626,-54.09684
2024-03-17 06:19:00+00:00,344.9163,0.8,11.53,47.84626,-54.09684
2024-03-17 06:29:00+00:00,343.6013,0.8,11.53,47.84626,-54.09684
2024-03-17 06:39:00+00:00,339.64300000000014,0.8,11.53,47.84626,-54.09684
2024-03-17 06:49:00+00:00,333.3813,0.8,11.53,47.84626,-54.09684
2024-03-17 06:59:00+00:00,328.1613,0.8,11.53,47.84626,-54.09684
2024-03-17 07:09:00+00:00,324.2496,0.8,11.53,47.84626,-54.09684
2024-03-17 07:19:00+00:00,322.6479,0.8,11.53,47.84626,-54.09684
2024-03-17 07:29:00+00:00,312.463,0.8,11.53,47.84626,-54.09684
2024-03-17 07:39:00+00:00,300.4346,0.8,11.53,47.84626,-54.09684
2024-03-17 07:49:00+00:00,295.5781,0.8,11.53,47.84626,-54.09684
2024-03-17 07:59:00+00:00,289.5997,0.8,11.53,47.84626,-54.09684
2024-03-17 08:09:00+00:00,281.5347,0.8,11.53,47.84626,-54.09684
2024-03-17 08:19:00+00:00,273.2881,0.85,11.53,47.84626,-54.09684
2024-03-17 08:29:00+00:00,266.9447,0.89,11.53,47.84626,-54.09684
2024-03-17 08:39:00+00:00,253.3048,0.9,11.53,47.84626,-54.09684
2024-03-17 08:49:00+00:00,247.6947,0.9,11.53,47.84626,-54.09684
2024-03-17 08:59:00+00:00,246.3164,0.9,11.53,47.84626,-54.09684
2024-03-17 09:09:00+00:00,240.3465,0.92,11.53,47.84626,-54.09684
2024-03-17 09:19:00+00:00,230.3964,0.96,11.53,47.84626,-54.09684
2024-03-17 09:29:00+00:00,226.4448,0.99,11.53,47.84626,-54.09684
2024-03-17 09:39:00+00:00,226.0215,0.98,11.53,47.84626,-54.09684
2024-03-17 09:49:00+00:00,222.9914,0.98,11.53,47.84626,-54.09684
2024-03-17 09:59:00+00:00,218.8748,0.98,11.53,47.84626,-54.09684
2024-03-17 10:09:00+00:00,220.4348,0.98,11.53,47.84626,-54.09684
2024-03-17 10:19:00+00:00,222.1681,0.9,11.53,47.84626,-54.09684
2024-03-17 10:29:00+00:00,222.9464,0.9,11.53,47.84626,-54.09684
2024-03-17 10:39:00+00:00,225.1547,0.9,11.53,47.84626,-54.09684
2024-03-17 10:49:00+00:00,226.3298,0.9,11.53,47.84626,-54.09684
2024-03-17 10:59:00+00:00,223.7447,0.9,11.53,47.84626,-54.09684
2024-03-17 11:09:00+00:00,223.3114,0.9,11.53,47.84626,-54.09684
2024-03-17 11:19:00+00:00,230.7498,0.9,11.61,47.84626,-54.09684
2024-03-17 11:29:00+00:00,233.6781,0.9,11.61,47.84626,-54.09684
2024-03-17 11:39:00+00:00,236.0047,0.89,11.61,47.84626,-54.09684
2024-03-17 11:49:00+00:00,242.3997,0.89,11.61,47.84626,-54.09684
2024-03-17 11:59:00+00:00,244.3464,0.89,11.61,47.84626,-54.09684
2024-03-17 12:09:00+00:00,239.8898,0.9,11.61,47.84626,-54.09684
2024-03-17 12:19:00+00:00,240.2948,0.9,11.7,47.84626,-54.09684
2024-03-17 12:29:00+00:00,247.8197,0.89,11.7,47.84626,-54.09684
2024-03-17 12:39:00+00:00,246.5564,0.89,11.7,47.84626,-54.09684
2024-03-17 12:49:00+00:00,242.4664,0.9,11.7,47.84626,-54.09684
2024-03-17 12:59:00+00:00,242.2614,0.9,11.7,47.84626,-54.09684
2024-03-17 13:09:00+00:00,247.6097,0.89,11.7,47.84626,-54.09684
2024-03-17 13:19:01+00:00,248.6248,0.89,12.17,47.84626,-54.09684
2024-03-17 13:29:01+00:00,247.1147,0.88,12.17,47.84626,-54.09684
2024-03-17 13:39:01+00:00,248.0381,0.89,12.17,47.84626,-54.09684
2024-03-17 13:49:01+00:00,256.183,0.89,12.17,47.84626,-54.09684
2024-03-17 13:59:01+00:00,258.8114,0.88,12.17,47.84626,-54.09684
2024-03-17 14:09:01+00:00,255.8048,0.89,12.17,47.84626,-54.09684
2024-03-17 14:19:01+00:00,256.5281,0.9,12.17,47.84626,-54.09684
2024-03-17 14:29:01+00:00,262.9264,0.88,12.17,47.84626,-54.09684
2024-03-17 14:39:01+00:00,265.6114,0.87,12.17,47.84626,-54.09684
2024-03-17 14:49:01+00:00,266.2148,0.89,12.17,47.84626,-54.09684
2024-03-17 14:59:01+00:00,270.2647,0.9,12.17,47.84626,-54.09684
2024-03-17 15:09:01+00:00,277.0131,0.9,12.17,47.84626,-54.09684
2024-03-17 15:19:00+00:00,280.3647,0.9,12.09,47.84626,-54.09684
2024-03-17 15:29:00+00:00,278.338,0.9,12.09,47.84626,-54.09684
2024-03-17 15:39:00+00:00,280.4197,0.9,12.09,47.84626,-54.09684
2024-03-17 15:49:00+00:00,282.928,0.9,12.09,47.84626,-54.09684
2024-03-17 15:59:00+00:00,284.0013,0.9,12.09,47.84626,-54.09684
2024-03-17 16:09:00+00:00,282.4514,0.9,12.09,47.84626,-54.09684
2024-03-17 16:19:00+00:00,284.0314,0.9,11.86,47.84626,-54.09684
2024-03-17 16:29:00+00:00,287.5046,0.91,11.86,47.84626,-54.09684
2024-03-17 16:39:00+00:00,290.8748,0.9,11.86,47.84626,-54.09684
2024-03-17 16:49:00+00:00,292.578,0.9,11.86,47.84626,-54.09684
2024-03-17 16:59:00+00:00,294.52299999999997,0.96,11.86,47.84626,-54.09684
2024-03-17 17:09:00+00:00,295.6946,1.0,11.86,47.84626,-54.09684
2024-03-17 17:19:01+00:00,299.353,1.0,11.93,47.84626,-54.09684
2024-03-17 17:29:01+00:00,302.1847,1.0,11.93,47.84626,-54.09684
2024-03-17 17:39:01+00:00,303.2029,1.0,11.93,47.84626,-54.09684
2024-03-17 17:49:01+00:00,302.5397,1.0,11.93,47.84626,-54.09684
2024-03-17 17:59:01+00:00,306.763,1.0,11.93,47.84626,-54.09684
2024-03-17 18:09:01+00:00,309.2996,1.02,11.93,47.84626,-54.09684
2024-03-17 18:19:00+00:00,306.623,1.05,11.86,47.84626,-54.09684
2024-03-17 18:29:00+00:00,305.683,1.0,11.86,47.84626,-54.09684
2024-03-17 18:39:00+00:00,308.2964,0.98,11.86,47.84626,-54.09684
2024-03-17 18:49:00+00:00,304.1447,1.0,11.86,47.84626,-54.09684
2024-03-17 18:59:00+00:00,295.0764,1.04,11.86,47.84626,-54.09684
2024-03-17 19:09:00+00:00,291.723,1.04,11.86,47.84626,-54.09684
2024-03-17 19:19:00+00:00,292.838,1.04,11.86,47.84626,-54.09684
2024-03-17 19:29:00+00:00,285.3414,1.07,11.86,47.84626,-54.09684
2024-03-17 19:39:00+00:00,278.4697,1.07,11.86,47.84626,-54.09684
2024-03-17 19:49:00+00:00,275.1431,1.08,11.86,47.84626,-54.09684
2024-03-17 19:59:00+00:00,270.093,1.1,11.86,47.84626,-54.09684
2024-03-17 20:09:00+00:00,260.4681,1.1,11.86,47.84626,-54.09684
2024-03-17 20:19:00+00:00,254.4247,1.1,11.77,47.84626,-54.09684
2024-03-17 20:29:00+00:00,251.6814,1.1,11.77,47.84626,-54.09684
2024-03-17 20:39:00+00:00,244.7231,1.13,11.77,47.84626,-54.09684
2024-03-17 20:49:00+00:00,234.7681,1.14,11.77,47.84626,-54.09684
2024-03-17 20:59:00+00:00,230.8981,1.15,11.77,47.84626,-54.09684
2024-03-17 21:09:00+00:00,230.0431,1.2,11.77,47.84626,-54.09684
2024-03-17 21:19:00+00:00,225.858,1.21,11.77,47.84626,-54.09684
2024-03-17 21:29:00+00:00,222.4697,1.3,11.77,47.84626,-54.09684
2024-03-17 21:39:00+00:00,221.2098,1.31,11.77,47.84626,-54.09684
2024-03-17 21:49:00+00:00,220.2898,1.4,11.77,47.84626,-54.09684
2024-03-17 21:59:00+00:00,216.1548,1.5,11.77,47.84626,-54.09684
2024-03-17 22:09:00+00:00,217.4081,1.51,11.77,47.84626,-54.09684
2024-03-17 22:19:00+00:00,219.5465,1.56,11.7,47.84626,-54.09684
2024-03-17 22:29:00+00:00,218.7714,1.6,11.7,47.84626,-54.09684
2024-03-17 22:39:00+00:00,218.9698,1.6,11.7,47.84626,-54.09684
2024-03-17 22:49:00+00:00,220.7698,1.65,11.7,47.84626,-54.09684
2024-03-17 22:59:00+00:00,222.6897,1.68,11.7,47.84626,-54.09684
2024-03-17 23:09:00+00:00,225.0098,1.7,11.7,47.84626,-54.09684
2024-03-17 23:19:00+00:00,226.5998,1.8,11.7,47.84626,-54.09684
2024-03-17 23:29:00+00:00,227.1131,1.82,11.7,47.84626,-54.09684
2024-03-17 23:39:00+00:00,231.0881,1.87,11.7,47.84626,-54.09684
2024-03-17 23:49:00+00:00,234.5847,1.88,11.7,47.84626,-54.09684
2024-03-17 23:59:00+00:00,237.1514,1.9,11.7,47.84626,-54.09684
